Flag for Canada Weather past 2 weeks in Niagara Falls, Ontario, Canada

36 °F

Scattered clouds.

Feels Like: 30 °F
Forecast: N/A
Wind: 7 mph from Northeast

Location: Niagara Falls International Airport

Current Time: Nov 29, 2015 at 5:08:14 PM

Latest Report: Nov 29, 2015 at 4:02 PM

Visibility: 10 mi

Pressure: 30.36 "Hg

Humidity: 62%

Dew point: 24 °F

Location of Niagara FallsLocation

Historic Weather in Niagara Falls — Graph


Niagara Falls temperature yesterday

Maximum temperature yesterday: 38 °F (at 12:53 AM)
Minimum temperature yesterday: 31 °F (at 7:53 PM)
Average temperature yesterday: 36 °F

Past Weeks' High & Low Weather Summary

High63 °F (Nov 18, 10:53 PM)93% (Nov 16, 7:53 AM)30.62 "Hg (Nov 16, 7:53 AM)
Low18 °F (Nov 23, 3:53 AM)34% (Nov 23, 11:53 AM)29.63 "Hg (Nov 21, 10:53 PM)
Average43 °F66%30.22 "Hg
* Reported Nov 14 2:53 PM — Nov 29 2:53 PM, Niagara Falls, Weather by CustomWeather, © 2015

Note: Actual official high and low records may vary slightly from our data, if they occured in-between our weather recording intervals... More about our weather records


Niagara Falls weather history for previous 24 hours

Time TempWeatherWind HumidityBarometerVisibility
2:53 PM
Sun, Nov 29
39 °FPartly sunny.12 mph60%30.37 "Hg10 mi
1:53 PM39 °FPartly sunny.8 mph60%30.38 "Hg10 mi
12:53 PM39 °FBroken clouds.6 mph60%30.39 "Hg10 mi
11:53 AM36 °FPartly sunny.6 mph64%30.40 "Hg10 mi
10:53 AM36 °FPartly sunny.5 mph64%30.41 "Hg10 mi
9:53 AM35 °FOvercast.3 mph67%30.40 "Hg10 mi
8:53 AM33 °FPartly sunny.No wind72%30.39 "Hg10 mi
7:53 AM32 °FScattered clouds.No wind73%30.39 "Hg10 mi
7:00 AM33 °FPassing clouds.No wind66%30.33 "Hg10 mi
5:53 AM33 °FOvercast.No wind70%30.36 "Hg10 mi
4:53 AM33 °FOvercast.3 mph72%30.36 "Hg10 mi
3:53 AM34 °FOvercast.3 mph70%30.35 "Hg10 mi
2:53 AM33 °FOvercast.3 mph75%30.35 "Hg10 mi
1:53 AM32 °FOvercast.No wind75%30.35 "Hg10 mi
12:53 AM32 °FOvercast.No wind79%30.36 "Hg10 mi
11:53 PM
Sat, Nov 28
32 °FOvercast.No wind75%30.35 "Hg10 mi
10:53 PM33 °FPassing clouds.No wind75%30.35 "Hg10 mi
9:53 PM33 °FPassing clouds.5 mph78%30.34 "Hg10 mi
8:53 PM32 °FPassing clouds.3 mph82%30.35 "Hg10 mi
7:53 PM31 °FPassing clouds.6 mph82%30.35 "Hg10 mi
6:53 PM34 °FPassing clouds.No wind79%30.34 "Hg10 mi
5:53 PM35 °FOvercast.3 mph75%30.33 "Hg10 mi
Weather by CustomWeather, © 2015

See weather overviewHow to use our weather pages